Wind_Speed
30 31 31 31 30 31 33 35 37 36 37 37 38 40 40 41 41 42 43 43 43 44 44 44 44 44 44 45 45 45 45 46 46 47 48 48 49 49 50 50 49 49 49 50
30 30 31 31 31 33 34 35 37 37 37 38 39 40 41 42 43 43 43 43 43 43 43 43 43 43 44 44 44 44 45 45 46 47 47 47 47 47 48 48 48 48 48 48
32 31 33 32 32 34 35 36 37 37 38 39 40 40 41 42 42 42 42 43 43 43 43 43 43 43 43 43 43 44 44 45 46 46 46 46 45 45 46 46 47 47 47 47
34 34 34 33 33 34 36 37 38 39 39 40 41 41 42 43 42 42 42 42 42 42 42 43 43 43 43 43 43 44 44 44 45 45 45 44 44 44 44 45 45 45 45 45
34 35 36 34 34 35 37 37 38 40 41 41 42 42 42 42 42 42 42 41 42 43 43 43 43 43 42 42 43 43 43 43 43 43 43 43 43 43 43 43 43 43 42 43
35 36 37 36 36 37 38 39 39 41 41 42 42 42 41 41 41 41 42 42 42 43 43 43 43 43 43 42 43 43 43 43 43 42 42 41 42 42 42 42 41 41 40 40
35 36 37 37 37 38 39 40 40 41 42 42 42 42 41 41 41 42 42 42 42 42 43 43 43 43 43 43 43 42 43 43 42 41 40 40 40 40 40 40 40 40 39 39
33 35 36 37 38 38 39 39 40 41 42 42 42 42 41 41 41 42 42 42 42 42 42 42 42 42 43 43 43 42 42 42 41 40 40 39 38 38 38 38 38 38 38 38
33 35 37 38 38 39 40 40 41 41 42 42 42 42 42 42 42 42 42 42 42 42 42 42 42 42 42 42 42 42 42 41 40 39 39 38 38 38 37 37 37 37 37 37
34 35 37 38 39 39 40 40 41 41 41 42 42 42 42 42 42 42 43 43 43 42 42 42 43 43 43 43 42 42 41 40 39 39 38 38 37 36 36 35 35 36 36 35
36 37 38 38 39 39 40 40 40 40 41 42 42 42 42 42 42 42 43 43 43 43 42 42 42 43 43 43 42 41 41 39 39 38 37 36 35 35 34 34 34 34 34 34
36 38 39 39 40 40 40 40 40 40 41 42 42 42 42 43 43 43 43 43 44 43 42 42 42 42 42 42 41 41 40 39 38 37 36 35 34 32 32 32 32 32 31 31
37 38 39 38 38 38 39 39 39 40 40 41 42 42 42 43 43 43 43 43 43 43 42 41 41 41 41 41 40 40 39 38 37 36 35 34 33 32 30 30 30 30 30 29
37 37 37 38 38 38 38 39 39 40 40 40 41 42 42 42 43 43 43 43 42 42 41 41 41 40 40 40 39 38 37 36 36 35 34 33 32 31 30 28 27 27 28 28
36 37 37 37 38 38 38 38 39 39 40 40 41 42 42 42 42 42 42 42 42 41 41 40 40 40 39 38 37 37 36 35 35 34 33 31 30 29 29 28 26 26 26 27
36 36 36 37 37 38 38 38 39 40 40 41 41 42 42 42 42 41 41 41 40 40 40 39 39 38 38 37 36 36 35 35 35 34 32 30 29 28 27 26 25 25 25 25
35 35 36 36 37 38 38 39 40 40 41 41 41 42 42 42 41 41 41 40 40 39 39 38 37 37 36 35 35 34 34 34 34 33 31 30 28 27 25 25 25 24 24 24
34 35 36 37 37 38 39 39 40 40 41 41 41 41 41 41 40 40 40 39 39 38 38 37 36 36 35 34 34 33 33 33 33 31 29 28 27 25 24 23 23 23 23 23
34 35 36 37 38 38 38 39 40 40 40 40 40 40 40 40 39 39 38 38 37 37 37 36 36 35 34 34 33 33 32 31 30 29 28 26 25 24 23 23 23 23 22 22
35 36 36 37 38 38 38 39 39 39 39 39 39 39 39 39 38 38 38 37 37 36 36 35 35 35 34 33 33 32 31 30 29 27 26 25 24 23 23 23 23 22 22 22
35 36 36 37 37 38 38 38 39 38 38 37 37 37 37 38 38 37 37 36 35 35 35 35 35 34 34 33 32 31 30 29 28 26 25 24 23 23 22 22 22 22 22 22
34 35 35 36 36 37 37 37 37 37 36 36 36 36 36 37 36 36 36 35 35 35 35 35 34 34 33 32 31 30 29 28 27 26 24 23 22 22 21 21 21 20 21 21
34 34 35 36 36 37 37 36 36 36 36 35 35 35 36 36 36 35 35 35 35 35 35 34 33 33 32 31 29 29 28 27 26 25 23 22 21 21 20 20 19 19 19 19
34 34 35 36 36 36 35 35 35 35 35 35 35 35 36 36 35 35 35 35 35 34 33 32 32 31 30 29 28 27 26 25 24 23 22 21 20 20 20 19 19 18 18 18
34 34 35 35 35 35 35 34 34 34 34 35 35 35 35 35 35 34 34 34 33 32 32 31 31 30 29 28 26 25 24 23 22 22 21 21 21 20 20 19 19 19 19 18
34 34 34 35 35 34 34 33 33 34 34 35 35 35 34 34 34 33 33 32 32 31 30 30 29 28 27 26 25 23 23 22 21 21 21 20 20 19 19 19 18 18 18 18
34 33 33 33 33 32 32 33 33 33 34 34 34 33 33 33 32 32 31 31 30 29 29 28 27 26 25 24 23 23 22 21 21 20 19 18 18 17 17 17 17 17 17 17
Wind_Direction
286 287 288 290 292 292 292 293 294 297 297 298 298 298 297 296 297 298 297 297 297 297 297 297 296 296 294 293 292 291 290 288 286 286 283 280 277 276 273 270 269 267 266 266
286 287 288 290 292 293 294 295 296 297 297 298 298 298 297 297 297 298 297 297 298 298 298 298 298 297 296 295 294 293 290 289 287 286 285 282 279 278 275 271 269 267 266 265
287 288 288 290 293 294 295 296 297 298 298 298 298 298 298 298 298 298 297 297 297 298 298 298 298 298 297 296 296 295 293 291 289 287 287 284 281 279 276 272 269 267 266 265
288 289 289 293 294 294 295 296 297 298 298 299 299 299 298 298 298 298 297 296 297 298 299 299 299 298 298 297 297 296 295 293 292 289 288 286 282 280 277 273 270 268 267 266
288 289 290 293 296 297 297 297 298 299 299 300 300 300 298 298 298 298 298 297 297 298 299 300 299 299 299 298 298 297 296 295 294 291 289 287 284 281 279 275 271 269 268 266
288 289 292 296 297 298 298 298 299 300 300 301 301 300 299 298 298 298 299 298 298 298 299 299 299 299 299 300 299 298 297 296 295 293 290 289 286 282 279 276 272 269 268 267
290 292 294 298 299 300 300 300 300 300 301 301 301 301 301 300 299 299 300 299 298 298 299 299 299 299 299 299 300 299 298 296 295 294 292 291 289 284 280 276 273 269 268 268
292 294 297 298 299 299 300 300 300 301 301 302 302 302 302 301 301 301 301 300 299 299 299 299 299 299 299 299 300 300 299 297 295 294 293 292 290 286 281 276 272 269 268 268
295 297 297 297 298 299 299 299 300 300 301 302 302 303 303 302 302 301 301 301 300 300 300 300 299 299 300 300 300 300 300 298 296 295 294 293 291 287 282 278 273 270 269 269
295 297 297 298 298 299 300 300 299 299 300 301 302 304 304 303 303 302 302 302 301 300 300 299 299 299 299 300 300 300 300 299 297 295 294 293 291 289 284 279 274 271 269 269
295 296 297 298 299 299 300 301 300 300 300 301 303 304 304 304 303 303 303 302 302 300 299 299 298 298 299 300 301 300 300 299 297 296 295 294 291 289 285 280 276 273 271 270
295 296 297 298 299 300 301 302 301 301 300 301 303 304 305 304 303 303 303 303 302 301 300 299 298 299 299 300 300 300 299 298 297 296 294 293 290 287 285 281 276 273 271 270
295 296 297 299 300 301 301 302 302 302 302 302 303 305 305 305 304 303 303 303 303 302 300 299 299 299 299 300 300 300 300 299 298 297 294 293 291 286 283 280 277 273 270 269
294 295 296 298 299 300 301 302 303 303 303 303 304 305 306 306 305 304 304 304 303 303 302 300 300 299 300 300 301 300 300 300 299 299 296 293 290 287 283 279 274 271 268 267
294 296 297 298 300 301 302 303 304 305 305 304 305 305 306 306 306 305 305 305 305 304 302 301 301 300 300 300 300 300 300 300 300 300 298 294 291 287 283 280 275 271 268 265
295 297 298 299 301 302 303 304 304 305 305 305 306 306 306 307 307 306 306 306 306 305 304 303 302 300 300 300 299 299 300 300 300 299 298 294 290 286 281 278 275 271 268 265
296 297 299 300 302 303 304 304 305 305 306 306 307 307 307 307 307 307 307 307 306 306 306 305 304 302 301 300 300 300 300 300 301 299 296 293 290 286 281 275 273 270 266 264
298 299 300 301 303 304 305 306 306 306 306 307 307 307 307 307 308 308 308 308 308 308 307 306 305 304 303 301 301 301 301 301 300 299 296 293 289 285 281 275 271 268 266 263
299 299 300 301 302 304 305 306 306 307 307 308 308 308 308 308 308 309 309 309 309 308 308 307 307 306 304 303 302 302 302 301 300 298 296 293 289 284 281 276 272 268 266 264
299 300 301 302 303 304 305 306 307 307 308 308 308 309 309 309 309 310 310 309 309 308 308 308 308 307 305 304 303 302 302 301 299 297 295 292 288 284 281 277 272 268 266 264
299 301 302 303 304 305 306 307 307 308 309 310 310 310 310 311 311 310 310 310 310 310 309 309 308 308 307 305 303 302 301 300 299 296 293 290 287 283 281 277 273 268 265 263
301 302 304 305 306 307 308 309 309 310 311 311 311 312 312 312 312 311 311 310 310 310 310 310 309 308 308 306 303 301 300 299 298 295 292 289 285 282 279 277 273 268 263 260
302 303 304 306 307 308 309 309 310 311 312 312 313 313 313 313 313 312 311 311 311 310 310 310 310 310 309 307 305 302 300 298 297 295 292 288 284 281 278 275 272 267 263 261
303 304 306 307 308 309 309 310 311 312 312 313 314 314 314 314 313 313 312 312 312 312 311 311 312 312 311 309 307 305 302 299 296 294 291 288 284 281 277 273 270 266 262 260
303 305 306 308 309 309 310 310 311 312 313 314 314 315 314 314 314 314 314 314 314 314 313 312 312 312 312 311 309 307 305 302 298 294 291 287 284 280 276 272 268 264 260 259
304 306 307 308 309 309 310 310 311 312 314 314 315 315 315 315 315 315 315 315 315 316 316 315 314 314 314 313 311 309 307 305 302 298 293 288 284 279 273 268 265 261 258 256
305 306 306 307 308 309 310 311 311 311 312 314 315 315 315 316 316 316 317 317 317 317 318 318 317 317 316 314 312 310 309 307 305 301 297 291 284 278 271 266 261 258 256 254
Height
5647 5644 5642 5640 5638 5635 5631 5628 5624 5621 5618 5614 5608 5604 5599 5595 5590 5586 5581 5576 5571 5566 5562 5557 5552 5547 5542 5538 5534 5530 5525 5521 5517 5514 5510 5507 5505 5502 5501 5500 5499 5499 5498 5498
5639 5636 5633 5631 5629 5625 5622 5618 5614 5611 5608 5604 5598 5593 5588 5584 5579 5574 5570 5565 5560 5555 5550 5545 5540 5536 5531 5526 5522 5517 5513 5509 5504 5501 5497 5493 5491 5489 5487 5485 5485 5485 5484 5484
5629 5627 5624 5623 5621 5617 5613 5609 5605 5601 5598 5593 5588 5583 5578 5573 5568 5563 5558 5554 5549 5544 5539 5534 5529 5524 5519 5514 5510 5505 5501 5496 5492 5488 5484 5480 5478 5475 5473 5472 5471 5471 5471 5470
5619 5618 5615 5616 5611 5607 5603 5600 5595 5591 5587 5582 5577 5572 5567 5562 5557 5552 5547 5542 5538 5533 5528 5523 5518 5513 5508 5503 5499 5494 5489 5484 5479 5475 5471 5468 5465 5462 5460 5459 5458 5458 5457 5457
5609 5606 5605 5605 5601 5597 5593 5590 5585 5580 5576 5571 5566 5561 5556 5550 5545 5541 5536 5531 5526 5521 5517 5512 5507 5502 5497 5492 5487 5482 5477 5472 5467 5463 5459 5455 5452 5450 5448 5446 5445 5445 5444 5444
5600 5597 5595 5595 5591 5586 5583 5579 5575 5570 5565 5560 5555 5551 5547 5540 5535 5530 5525 5520 5515 5510 5505 5500 5495 5490 5486 5481 5476 5471 5465 5460 5455 5451 5447 5443 5440 5437 5435 5434 5433 5432 5432 5432
5591 5587 5585 5584 5580 5576 5574 5570 5564 5559 5554 5549 5544 5540 5535 5529 5524 5519 5514 5509 5504 5499 5494 5489 5484 5479 5474 5470 5465 5459 5454 5449 5444 5439 5435 5431 5428 5425 5423 5422 5421 5421 5421 5420
5582 5579 5579 5574 5570 5566 5563 5558 5553 5548 5543 5538 5533 5528 5523 5518 5513 5508 5503 5498 5493 5488 5483 5478 5473 5468 5464 5459 5454 5448 5443 5438 5433 5428 5424 5420 5416 5414 5411 5409 5409 5409 5408 5409
5574 5572 5568 5563 5559 5555 5552 5547 5543 5538 5533 5528 5523 5517 5512 5507 5502 5497 5492 5487 5482 5477 5472 5466 5461 5457 5452 5448 5443 5437 5432 5427 5422 5417 5413 5408 5405 5402 5400 5398 5397 5397 5397 5397
5564 5561 5557 5553 5549 5545 5541 5537 5532 5527 5522 5517 5512 5507 5502 5496 5491 5486 5481 5476 5471 5466 5461 5456 5451 5446 5441 5437 5432 5426 5421 5416 5412 5407 5403 5399 5395 5391 5389 5387 5386 5386 5386 5386
5554 5551 5547 5543 5539 5535 5531 5526 5521 5517 5512 5507 5502 5496 5491 5486 5480 5475 5470 5465 5460 5454 5450 5445 5440 5435 5430 5425 5420 5415 5411 5406 5401 5397 5392 5389 5385 5381 5378 5377 5375 5375 5375 5375
5544 5541 5537 5534 5529 5525 5520 5515 5511 5506 5501 5496 5491 5486 5481 5475 5470 5464 5459 5454 5449 5443 5438 5433 5428 5423 5418 5414 5409 5404 5400 5395 5391 5386 5382 5378 5375 5372 5369 5367 5365 5364 5364 5364
5534 5530 5526 5522 5518 5514 5509 5505 5500 5496 5491 5486 5481 5475 5470 5465 5459 5454 5448 5443 5437 5432 5427 5422 5417 5412 5407 5402 5398 5393 5389 5384 5380 5375 5371 5368 5365 5362 5360 5358 5355 5354 5354 5354
5523 5520 5516 5512 5508 5504 5499 5495 5490 5485 5480 5475 5470 5465 5459 5454 5448 5443 5437 5432 5426 5421 5416 5411 5406 5401 5396 5391 5387 5382 5378 5374 5369 5365 5361 5358 5355 5352 5350 5348 5347 5346 5345 5345
5513 5509 5506 5502 5498 5494 5489 5485 5480 5475 5470 5465 5459 5454 5449 5443 5437 5432 5426 5421 5415 5410 5405 5400 5395 5390 5385 5381 5376 5372 5368 5364 5360 5356 5352 5348 5345 5343 5341 5339 5338 5337 5336 5336
5503 5499 5495 5492 5488 5484 5479 5474 5470 5465 5460 5454 5449 5443 5438 5432 5426 5421 5415 5410 5405 5399 5394 5389 5384 5379 5375 5370 5366 5362 5358 5354 5350 5346 5342 5339 5336 5334 5332 5330 5329 5328 5328 5328
5493 5489 5485 5482 5477 5473 5469 5464 5459 5454 5449 5444 5438 5433 5427 5422 5416 5410 5405 5399 5394 5389 5384 5379 5374 5369 5364 5360 5356 5352 5348 5344 5340 5336 5332 5329 5327 5325 5323 5322 5321 5320 5320 5320
5483 5479 5476 5472 5467 5463 5459 5454 5449 5444 5439 5433 5427 5422 5416 5411 5406 5400 5395 5389 5384 5378 5373 5368 5364 5359 5354 5350 5346 5342 5338 5334 5330 5326 5323 5320 5318 5316 5314 5313 5313 5313 5312 5312
5473 5469 5465 5461 5457 5453 5448 5444 5439 5433 5428 5422 5417 5411 5406 5401 5396 5390 5385 5379 5374 5369 5364 5359 5354 5349 5345 5340 5336 5332 5328 5324 5321 5317 5314 5312 5309 5308 5306 5305 5305 5305 5305 5305
5463 5459 5455 5451 5447 5442 5438 5433 5428 5422 5417 5412 5407 5401 5396 5391 5386 5380 5375 5370 5365 5360 5354 5349 5345 5340 5335 5331 5327 5323 5319 5315 5312 5309 5306 5304 5302 5300 5298 5297 5297 5297 5297 5297
5453 5449 5445 5441 5436 5432 5428 5423 5418 5413 5407 5402 5397 5392 5387 5381 5376 5371 5366 5361 5355 5350 5345 5340 5335 5330 5326 5322 5318 5314 5310 5307 5303 5301 5298 5296 5294 5292 5291 5290 5289 5289 5289 5289
5443 5439 5435 5431 5427 5422 5418 5413 5408 5403 5398 5393 5388 5382 5377 5372 5367 5361 5356 5351 5346 5341 5336 5331 5326 5321 5317 5312 5308 5305 5301 5298 5295 5292 5290 5288 5286 5285 5284 5283 5282 5282 5282 5282
5434 5430 5426 5422 5417 5413 5408 5403 5399 5394 5389 5384 5379 5374 5368 5363 5358 5353 5348 5342 5337 5332 5327 5322 5317 5312 5308 5303 5299 5296 5293 5289 5287 5284 5282 5280 5279 5278 5277 5276 5276 5275 5275 5276
5424 5421 5417 5412 5408 5403 5399 5394 5389 5385 5380 5375 5370 5365 5360 5354 5349 5344 5339 5334 5328 5323 5318 5313 5309 5304 5299 5295 5291 5288 5284 5281 5279 5277 5275 5273 5272 5271 5270 5270 5269 5269 5269 5269
5415 5411 5407 5403 5399 5394 5390 5385 5380 5376 5371 5366 5361 5356 5351 5346 5341 5336 5330 5325 5320 5315 5310 5305 5300 5296 5291 5287 5284 5280 5277 5274 5272 5270 5268 5266 5265 5264 5263 5263 5263 5262 5263 5263
5406 5402 5398 5394 5389 5385 5381 5376 5372 5367 5363 5358 5353 5347 5342 5337 5332 5327 5322 5317 5312 5307 5302 5298 5293 5289 5284 5280 5277 5273 5270 5267 5265 5263 5261 5259 5258 5257 5256 5256 5256 5256 5256 5257
5397 5393 5389 5385 5380 5376 5372 5368 5364 5359 5354 5350 5345 5339 5334 5329 5324 5319 5314 5310 5305 5300 5296 5291 5286 5282 5278 5274 5270 5267 5264 5261 5258 5256 5254 5252 5251 5250 5250 5250 5250 5250 5250 5251